| time (UTC) | temp C | wind direction | speed KPH | gust KPH | rain 1hr cm | rain 24hr cm | rain mn cm | humidity % | barometer mb |
| 20260507195748 | 18 | 2 | 4.8 | 8.0 | 0.00 | 0.00 | 0.00 | 46 | 1008.0 |
| 20260507195245 | 17 | 184 | 4.8 | 4.8 | 0.00 | 0.00 | 0.00 | 46 | 1008.2 |
| 20260507194743 | 17 | 149 | 3.2 | 3.2 | 0.00 | 0.00 | 0.00 | 47 | 1008.3 |
| 20260507194238 | 17 | 3 | 9.7 | 16.1 | 0.00 | 0.00 | 0.00 | 44 | 1008.1 |
| 20260507193735 | 17 | 341 | 6.4 | 8.0 | 0.00 | 0.00 | 0.00 | 47 | 1008.4 |
| 20260507193232 | 16 | 126 | 3.2 | 3.2 | 0.00 | 0.00 | 0.00 | 47 | 1008.4 |
| 20260507192728 | 17 | 172 | 3.2 | 4.8 | 0.00 | 0.00 | 0.00 | 48 | 1008.4 |
| 20260507192225 | 17 | 126 | 0.0 | 1.6 | 0.00 | 0.00 | 0.00 | 45 | 1008.4 |
| 20260507191721 | 16 | 94 | 4.8 | 4.8 | 0.00 | 0.00 | 0.00 | 46 | 1008.5 |
| 20260507191218 | 17 | 351 | 4.8 | 4.8 | 0.00 | 0.00 | 0.00 | 46 | 1008.8 |
| 20260507190715 | 16 | 148 | 4.8 | 8.0 | 0.00 | 0.00 | 0.00 | 46 | 1008.8 |
| 20260507190213 | 17 | 5 | 11.3 | 17.7 | 0.00 | 0.00 | 0.00 | 45 | 1008.7 |
| 20260507185711 | 17 | 182 | 8.0 | 9.7 | 0.00 | 0.00 | 0.00 | 45 | 1009.0 |
| 20260507185208 | 17 | 144 | 3.2 | 3.2 | 0.00 | 0.00 | 0.00 | 52 | 1008.9 |
| 20260507184706 | 16 | 138 | 4.8 | 9.7 | 0.00 | 0.00 | 0.00 | 47 | 1009.0 |
| 20260507184204 | 16 | 119 | 3.2 | 4.8 | 0.00 | 0.00 | 0.00 | 46 | 1008.8 |
| 20260507183700 | 16 | 343 | 8.0 | 8.0 | 0.00 | 0.00 | 0.00 | 46 | 1008.8 |
| 20260507183157 | 17 | 126 | 4.8 | 9.7 | 0.00 | 0.00 | 0.00 | 46 | 1009.0 |
| 20260507182654 | 17 | 357 | 11.3 | 14.5 | 0.00 | 0.00 | 0.00 | 45 | 1009.1 |
| 20260507182149 | 17 | 144 | 0.0 | 1.6 | 0.00 | 0.00 | 0.00 | 45 | 1009.3 |
| 20260507181646 | 17 | 61 | 1.6 | 1.6 | 0.00 | 0.00 | 0.00 | 44 | 1009.0 |
| 20260507181143 | 17 | 110 | 4.8 | 4.8 | 0.00 | 0.00 | 0.00 | 47 | 1009.1 |
| 20260507180639 | 17 | 52 | 8.0 | 9.7 | 0.00 | 0.00 | 0.00 | 49 | 1009.0 |
| 20260507180136 | 16 | 289 | 6.4 | 9.7 | 0.00 | 0.00 | 0.00 | 49 | 1009.0 |
| 20260507175632 | 16 | 134 | 0.0 | 1.6 | 0.00 | 0.00 | 0.00 | 49 | 1009.1 |
| 20260507175129 | 17 | 129 | 4.8 | 8.0 | 0.00 | 0.00 | 0.00 | 49 | 1009.2 |
| 20260507174626 | 17 | 278 | 6.4 | 9.7 | 0.00 | 0.00 | 0.00 | 50 | 1009.0 |
| 20260507174124 | 16 | 103 | 4.8 | 4.8 | 0.00 | 0.00 | 0.00 | 51 | 1009.2 |
| 20260507173621 | 16 | 86 | 4.8 | 8.0 | 0.00 | 0.00 | 0.00 | 52 | 1009.1 |
| 20260507173118 | 16 | 129 | 1.6 | 3.2 | 0.00 | 0.00 | 0.00 | 52 | 1009.5 |
| 20260507172614 | 16 | 125 | 1.6 | 3.2 | 0.00 | 0.00 | 0.00 | 51 | 1009.0 |
| 20260507172112 | 17 | 339 | 8.0 | 9.7 | 0.00 | 0.00 | 0.00 | 53 | 1009.3 |
| 20260507171606 | 16 | 185 | 4.8 | 8.0 | 0.00 | 0.00 | 0.00 | 52 | 1009.5 |
| 20260507171104 | 16 | 74 | 6.4 | 8.0 | 0.00 | 0.00 | 0.00 | 52 | 1009.8 |
| 20260507170601 | 16 | 12 | 8.0 | 11.3 | 0.00 | 0.00 | 0.00 | 52 | 1009.8 |
| 20260507170058 | 16 | 108 | 3.2 | 4.8 | 0.00 | 0.00 | 0.00 | 54 | 1009.5 |
| 20260507165553 | 16 | 138 | 4.8 | 4.8 | 0.00 | 0.00 | 0.00 | 52 | 1009.7 |
| 20260507165049 | 16 | 174 | 6.4 | 8.0 | 0.00 | 0.00 | 0.00 | 51 | 1009.8 |
| 20260507164546 | 17 | 127 | 1.6 | 3.2 | 0.00 | 0.00 | 0.00 | 53 | 1009.5 |
| 20260507164043 | 16 | 83 | 4.8 | 4.8 | 0.00 | 0.00 | 0.00 | 50 | 1009.9 |
| 20260507163540 | 16 | 136 | 6.4 | 9.7 | 0.00 | 0.00 | 0.00 | 53 | 1009.8 |
| 20260507163039 | 16 | 178 | 1.6 | 3.2 | 0.00 | 0.00 | 0.00 | 51 | 1009.9 |
| 20260507162538 | 16 | 135 | 0.0 | 0.0 | 0.00 | 0.00 | 0.00 | 56 | 1009.8 |
| 20260507162036 | 16 | 116 | 4.8 | 4.8 | 0.00 | 0.00 | 0.00 | 51 | 1009.8 |
| 20260507161532 | 15 | 94 | 4.8 | 4.8 | 0.00 | 0.00 | 0.00 | 54 | 1009.9 |
| 20260507161029 | 16 | 288 | 6.4 | 9.7 | 0.00 | 0.00 | 0.00 | 54 | 1010.0 |
| 20260507160525 | 15 | 90 | 1.6 | 3.2 | 0.00 | 0.00 | 0.00 | 56 | 1010.0 |
| 20260507160021 | 15 | 127 | 0.0 | 0.0 | 0.00 | 0.00 | 0.00 | 56 | 1009.9 |
| 20260507155516 | 15 | 134 | 0.0 | 1.6 | 0.00 | 0.00 | 0.00 | 57 | 1010.2 |
| 20260507155014 | 14 | 254 | 6.4 | 8.0 | 0.00 | 0.00 | 0.00 | 56 | 1010.1 |
| 20260507154511 | 15 | 160 | 1.6 | 3.2 | 0.00 | 0.00 | 0.00 | 56 | 1010.2 |
| 20260507154009 | 16 | 79 | 4.8 | 4.8 | 0.00 | 0.00 | 0.00 | 56 | 1009.9 |
| 20260507153505 | 15 | 196 | 4.8 | 4.8 | 0.00 | 0.00 | 0.00 | 59 | 1010.1 |
| 20260507153001 | 15 | 192 | 3.2 | 8.0 | 0.00 | 0.00 | 0.00 | 59 | 1010.1 |
| 20260507152457 | 16 | 256 | 8.0 | 12.9 | 0.00 | 0.00 | 0.00 | 62 | 1010.0 |
| 20260507151953 | 15 | 111 | 0.0 | 0.0 | 0.00 | 0.00 | 0.00 | 56 | 1009.9 |
| 20260507151450 | 15 | 153 | 3.2 | 3.2 | 0.00 | 0.00 | 0.00 | 56 | 1010.2 |
| 20260507150946 | 15 | 225 | 8.0 | 9.7 | 0.00 | 0.00 | 0.00 | 58 | 1009.9 |
| 20260507150443 | 15 | 153 | 4.8 | 4.8 | 0.00 | 0.00 | 0.00 | 56 | 1009.9 |
| 20260507145940 | 15 | 122 | 0.0 | 0.0 | 0.00 | 0.00 | 0.00 | 57 | 1010.1 |
| 20260507145435 | 15 | 85 | 4.8 | 4.8 | 0.00 | 0.00 | 0.00 | 56 | 1010.1 |
| 20260507144933 | 15 | 166 | 4.8 | 4.8 | 0.00 | 0.00 | 0.00 | 58 | 1010.3 |
| 20260507144429 | 15 | 102 | 1.6 | 3.2 | 0.00 | 0.00 | 0.00 | 58 | 1010.3 |
| 20260507143927 | 14 | 136 | 1.6 | 1.6 | 0.00 | 0.00 | 0.00 | 61 | 1010.1 |
| 20260507143424 | 14 | 348 | 6.4 | 8.0 | 0.00 | 0.00 | 0.00 | 59 | 1010.3 |
| 20260507142920 | 15 | 136 | 1.6 | 1.6 | 0.00 | 0.00 | 0.00 | 60 | 1009.9 |
| 20260507142416 | 14 | 114 | 3.2 | 3.2 | 0.00 | 0.00 | 0.00 | 62 | 1010.2 |
| 20260507141914 | 14 | 63 | 4.8 | 4.8 | 0.00 | 0.00 | 0.00 | 61 | 1010.3 |
| 20260507141410 | 14 | 129 | 1.6 | 3.2 | 0.00 | 0.00 | 0.00 | 61 | 1010.5 |
| 20260507140907 | 14 | 113 | 4.8 | 4.8 | 0.00 | 0.00 | 0.00 | 62 | 1010.4 |
| 20260507140403 | 13 | 85 | 3.2 | 3.2 | 0.00 | 0.00 | 0.00 | 63 | 1010.4 |
| 20260507135901 | 13 | 140 | 4.8 | 4.8 | 0.00 | 0.00 | 0.00 | 62 | 1010.4 |
| 20260507135357 | 13 | 96 | 4.8 | 8.0 | 0.00 | 0.00 | 0.00 | 63 | 1010.5 |
| 20260507134855 | 13 | 148 | 3.2 | 3.2 | 0.00 | 0.00 | 0.00 | 68 | 1010.6 |
| 20260507134351 | 13 | 284 | 3.2 | 8.0 | 0.00 | 0.00 | 0.00 | 66 | 1010.5 |
| 20260507133847 | 13 | 98 | 4.8 | 4.8 | 0.00 | 0.00 | 0.00 | 67 | 1010.8 |
| 20260507133342 | 13 | 113 | 0.0 | 0.0 | 0.00 | 0.00 | 0.00 | 75 | 1010.7 |
| 20260507132842 | 13 | 110 | 1.6 | 3.2 | 0.00 | 0.00 | 0.00 | 78 | 1010.7 |
| 20260507132337 | 13 | 112 | 1.6 | 1.6 | 0.00 | 0.00 | 0.00 | 82 | 1010.9 |
| 20260507131835 | 13 | 116 | 0.0 | 0.0 | 0.00 | 0.00 | 0.00 | 82 | 1010.9 |
| 20260507131331 | 12 | 114 | 0.0 | 0.0 | 0.00 | 0.00 | 0.00 | 83 | 1010.9 |
| 20260507130828 | 12 | 125 | 0.0 | 0.0 | 0.00 | 0.00 | 0.00 | 85 | 1010.8 |
| 20260507130325 | 12 | 120 | 0.0 | 0.0 | 0.00 | 0.00 | 0.00 | 88 | 1010.9 |
| 20260507125824 | 11 | 99 | 0.0 | 0.0 | 0.00 | 0.00 | 0.00 | 86 | 1011.0 |
| 20260507125321 | 11 | 120 | 1.6 | 1.6 | 0.00 | 0.00 | 0.00 | 92 | 1010.8 |
| 20260507124819 | 11 | 119 | 1.6 | 1.6 | 0.00 | 0.00 | 0.00 | 92 | 1010.8 |
| 20260507124315 | 11 | 117 | 0.0 | 1.6 | 0.00 | 0.00 | 0.00 | 94 | 1010.9 |
| 20260507123813 | 10 | 139 | 1.6 | 1.6 | 0.00 | 0.00 | 0.00 | 92 | 1010.6 |
| 20260507123310 | 10 | 139 | 1.6 | 1.6 | 0.00 | 0.00 | 0.00 | 94 | 1010.9 |
| 20260507122806 | 10 | 127 | 0.0 | 0.0 | 0.00 | 0.00 | 0.00 | 96 | 1010.9 |
| 20260507122306 | 10 | 122 | 0.0 | 0.0 | 0.00 | 0.00 | 0.00 | 97 | 1010.7 |
| 20260507121758 | 10 | 129 | 0.0 | 0.0 | 0.00 | 0.00 | 0.00 | 97 | 1010.8 |
| 20260507121254 | 10 | 169 | 3.2 | 3.2 | 0.00 | 0.00 | 0.00 | 98 | 1010.7 |
| 20260507120750 | 10 | 117 | 0.0 | 1.6 | 0.00 | 0.00 | 0.00 | 98 | 1010.6 |
| 20260507120247 | 10 | 137 | 1.6 | 1.6 | 0.00 | 0.00 | 0.00 | 99 | 1010.8 |
| 20260507115743 | 10 | 115 | 1.6 | 1.6 | 0.00 | 0.00 | 0.00 | 99 | 1010.6 |
| 20260507115239 | 10 | 116 | 0.0 | 0.0 | 0.00 | 0.00 | 0.00 | 99 | 1010.7 |
| 20260507114735 | 10 | 128 | 1.6 | 1.6 | 0.00 | 0.00 | 0.00 | 99 | 1010.7 |
| 20260507114232 | 10 | 125 | 0.0 | 0.0 | 0.00 | 0.00 | 0.00 | 99 | 1010.5 |
| 20260507113730 | 10 | 132 | 0.0 | 0.0 | 0.00 | 0.00 | 0.00 | 99 | 1011.0 |
| 20260507113227 | 10 | 132 | 0.0 | 0.0 | 0.00 | 0.00 | 0.00 | 99 | 1010.6 |
| 20260507112724 | 10 | 132 | 0.0 | 0.0 | 0.00 | 0.00 | 0.00 | 99 | 1010.9 |
| 20260507112221 | 9 | 132 | 0.0 | 0.0 | 0.00 | 0.00 | 0.00 | 99 | 1010.8 |
| 20260507111718 | 9 | 131 | 0.0 | 0.0 | 0.00 | 0.00 | 0.00 | 99 | 1010.7 |
| 20260507111215 | 9 | 131 | 0.0 | 0.0 | 0.00 | 0.00 | 0.00 | 99 | 1010.6 |
| 20260507110711 | 9 | 131 | 0.0 | 0.0 | 0.00 | 0.00 | 0.00 | 99 | 1010.4 |
| 20260507110208 | 9 | 131 | 0.0 | 0.0 | 0.00 | 0.00 | 0.00 | 99 | 1010.2 |
| 20260507105705 | 9 | 131 | 0.0 | 0.0 | 0.00 | 0.00 | 0.00 | 99 | 1010.0 |
| 20260507105200 | 9 | 131 | 0.0 | 0.0 | 0.00 | 0.00 | 0.00 | 99 | 1010.2 |
| 20260507104658 | 9 | 132 | 0.0 | 0.0 | 0.00 | 0.00 | 0.00 | 99 | 1010.1 |
| 20260507104154 | 9 | 132 | 0.0 | 0.0 | 0.00 | 0.00 | 0.00 | 99 | 1010.1 |
| 20260507103650 | 9 | 132 | 0.0 | 0.0 | 0.00 | 0.00 | 0.00 | 99 | 1010.3 |
| 20260507103147 | 9 | 132 | 0.0 | 0.0 | 0.00 | 0.00 | 0.00 | 99 | 1010.3 |
| 20260507102644 | 9 | 132 | 0.0 | 0.0 | 0.00 | 0.00 | 0.00 | 99 | 1010.0 |
| 20260507102140 | 9 | 131 | 0.0 | 0.0 | 0.00 | 0.00 | 0.00 | 99 | 1010.2 |
| 20260507101636 | 9 | 131 | 0.0 | 0.0 | 0.00 | 0.00 | 0.00 | 99 | 1010.3 |
| 20260507101132 | 9 | 131 | 0.0 | 0.0 | 0.00 | 0.00 | 0.00 | 98 | 1010.1 |
| 20260507100630 | 9 | 131 | 0.0 | 0.0 | 0.00 | 0.00 | 0.00 | 98 | 1010.0 |
| 20260507100128 | 9 | 131 | 0.0 | 0.0 | 0.00 | 0.00 | 0.00 | 98 | 1009.7 |
| 20260507095626 | 9 | 131 | 0.0 | 0.0 | 0.00 | 0.00 | 0.00 | 98 | 1009.9 |
| 20260507095122 | 9 | 131 | 0.0 | 0.0 | 0.00 | 0.00 | 0.00 | 98 | 1009.9 |
| 20260507094618 | 9 | 131 | 0.0 | 0.0 | 0.00 | 0.00 | 0.00 | 98 | 1009.9 |
| 20260507094115 | 9 | 131 | 0.0 | 0.0 | 0.00 | 0.00 | 0.00 | 98 | 1009.9 |
| 20260507093612 | 9 | 131 | 0.0 | 0.0 | 0.00 | 0.00 | 0.00 | 98 | 1009.9 |
| 20260507093111 | 9 | 131 | 0.0 | 0.0 | 0.00 | 0.00 | 0.00 | 98 | 1010.1 |
| 20260507092607 | 9 | 132 | 0.0 | 0.0 | 0.00 | 0.00 | 0.00 | 98 | 1010.1 |
| 20260507092103 | 9 | 131 | 0.0 | 0.0 | 0.00 | 0.00 | 0.00 | 98 | 1010.3 |
| 20260507091601 | 9 | 131 | 0.0 | 0.0 | 0.00 | 0.00 | 0.00 | 98 | 1010.2 |
| 20260507091056 | 9 | 131 | 0.0 | 0.0 | 0.00 | 0.00 | 0.00 | 98 | 1010.2 |
| 20260507090552 | 9 | 130 | 0.0 | 0.0 | 0.00 | 0.00 | 0.00 | 98 | 1010.1 |
| 20260507090049 | 9 | 131 | 0.0 | 0.0 | 0.00 | 0.00 | 0.00 | 98 | 1010.3 |
| 20260507085546 | 9 | 130 | 0.0 | 0.0 | 0.00 | 0.00 | 0.00 | 98 | 1010.0 |
| 20260507085043 | 9 | 130 | 0.0 | 0.0 | 0.00 | 0.00 | 0.00 | 98 | 1009.9 |
| 20260507084540 | 9 | 130 | 0.0 | 0.0 | 0.00 | 0.00 | 0.00 | 98 | 1009.9 |
| 20260507084037 | 9 | 132 | 0.0 | 0.0 | 0.00 | 0.00 | 0.00 | 98 | 1009.8 |
| 20260507083533 | 9 | 131 | 0.0 | 0.0 | 0.00 | 0.00 | 0.00 | 98 | 1009.7 |
| 20260507083030 | 10 | 131 | 0.0 | 0.0 | 0.00 | 0.00 | 0.00 | 98 | 1009.7 |
| 20260507082526 | 10 | 132 | 0.0 | 0.0 | 0.00 | 0.00 | 0.00 | 98 | 1009.8 |
| 20260507082023 | 10 | 131 | 0.0 | 0.0 | 0.00 | 0.00 | 0.00 | 98 | 1009.9 |
| 20260507081519 | 10 | 131 | 0.0 | 0.0 | 0.00 | 0.00 | 0.00 | 98 | 1010.0 |
| 20260507081016 | 10 | 130 | 1.6 | 1.6 | 0.00 | 0.00 | 0.00 | 98 | 1009.9 |
| 20260507080512 | 10 | 132 | 1.6 | 1.6 | 0.00 | 0.00 | 0.00 | 98 | 1009.8 |
| 20260507080008 | 10 | 131 | 1.6 | 1.6 | 0.00 | 0.00 | 0.00 | 97 | 1009.8 |
| 20260507075504 | 10 | 131 | 0.0 | 0.0 | 0.00 | 0.00 | 0.00 | 97 | 1009.9 |
| 20260507075001 | 10 | 131 | 0.0 | 0.0 | 0.00 | 0.00 | 0.00 | 97 | 1010.0 |
| 20260507074457 | 10 | 130 | 0.0 | 0.0 | 0.00 | 0.00 | 0.00 | 97 | 1010.2 |
| 20260507073955 | 10 | 130 | 0.0 | 0.0 | 0.00 | 0.00 | 0.00 | 97 | 1010.3 |
| 20260507073451 | 10 | 129 | 0.0 | 0.0 | 0.00 | 0.00 | 0.00 | 97 | 1010.1 |
| 20260507072948 | 10 | 129 | 0.0 | 0.0 | 0.00 | 0.00 | 0.00 | 97 | 1010.3 |
| 20260507072446 | 10 | 129 | 0.0 | 0.0 | 0.00 | 0.00 | 0.00 | 97 | 1009.9 |
| 20260507071943 | 10 | 130 | 0.0 | 0.0 | 0.00 | 0.00 | 0.00 | 97 | 1009.9 |
| 20260507071440 | 10 | 129 | 0.0 | 0.0 | 0.00 | 0.00 | 0.00 | 96 | 1010.0 |
| 20260507070936 | 10 | 129 | 0.0 | 0.0 | 0.00 | 0.00 | 0.00 | 96 | 1010.0 |
| 20260507070434 | 10 | 130 | 0.0 | 0.0 | 0.00 | 0.00 | 0.00 | 96 | 1010.0 |
| 20260507065930 | 10 | 129 | 0.0 | 0.0 | 0.00 | 0.00 | 0.00 | 96 | 1009.9 |
| 20260507065427 | 10 | 130 | 0.0 | 0.0 | 0.00 | 0.00 | 0.00 | 96 | 1010.1 |
| 20260507064919 | 10 | 129 | 0.0 | 0.0 | 0.00 | 0.00 | 0.00 | 96 | 1010.2 |
| 20260507064417 | 10 | 129 | 0.0 | 0.0 | 0.00 | 0.00 | 0.00 | 96 | 1010.3 |
| 20260507063915 | 10 | 129 | 0.0 | 0.0 | 0.00 | 0.00 | 0.00 | 96 | 1010.2 |
| 20260507063411 | 10 | 127 | 0.0 | 0.0 | 0.00 | 0.00 | 0.00 | 96 | 1010.0 |
| 20260507062908 | 10 | 131 | 0.0 | 0.0 | 0.00 | 0.00 | 0.00 | 96 | 1010.0 |
| 20260507062405 | 10 | 132 | 0.0 | 0.0 | 0.00 | 0.00 | 0.00 | 96 | 1009.9 |
| 20260507061903 | 10 | 131 | 0.0 | 0.0 | 0.00 | 0.00 | 0.00 | 96 | 1010.0 |
| 20260507061401 | 10 | 132 | 0.0 | 0.0 | 0.00 | 0.00 | 0.00 | 96 | 1010.0 |
| 20260507060859 | 10 | 132 | 0.0 | 0.0 | 0.00 | 0.00 | 0.00 | 96 | 1009.9 |
| 20260507060355 | 10 | 132 | 0.0 | 0.0 | 0.00 | 0.00 | 0.00 | 95 | 1010.3 |
| 20260507055852 | 10 | 136 | 0.0 | 0.0 | 0.00 | 0.00 | 0.00 | 95 | 1010.3 |
| 20260507055347 | 10 | 131 | 0.0 | 0.0 | 0.00 | 0.00 | 0.00 | 95 | 1010.2 |
| 20260507054844 | 10 | 131 | 0.0 | 0.0 | 0.00 | 0.00 | 0.00 | 95 | 1010.5 |
| 20260507054340 | 10 | 131 | 0.0 | 0.0 | 0.00 | 0.00 | 0.00 | 95 | 1010.5 |
| 20260507053837 | 10 | 131 | 0.0 | 0.0 | 0.00 | 0.00 | 0.00 | 95 | 1010.2 |
| 20260507053335 | 10 | 131 | 0.0 | 0.0 | 0.00 | 0.00 | 0.00 | 95 | 1010.2 |
| 20260507052834 | 10 | 132 | 0.0 | 0.0 | 0.00 | 0.00 | 0.00 | 95 | 1010.6 |
| 20260507052330 | 10 | 129 | 0.0 | 0.0 | 0.00 | 0.00 | 0.00 | 96 | 1010.7 |
| 20260507051828 | 10 | 133 | 0.0 | 0.0 | 0.00 | 0.00 | 0.00 | 95 | 1010.6 |
| 20260507051325 | 10 | 131 | 0.0 | 0.0 | 0.00 | 0.00 | 0.00 | 95 | 1010.4 |
| 20260507050822 | 10 | 132 | 0.0 | 0.0 | 0.00 | 0.00 | 0.00 | 95 | 1010.5 |
| 20260507050318 | 11 | 131 | 0.0 | 0.0 | 0.00 | 0.00 | 0.00 | 95 | 1010.3 |
| 20260507045816 | 11 | 132 | 0.0 | 0.0 | 0.00 | 0.00 | 0.00 | 95 | 1010.2 |
| 20260507045312 | 11 | 132 | 0.0 | 0.0 | 0.00 | 0.00 | 0.00 | 95 | 1010.4 |
| 20260507044809 | 11 | 130 | 0.0 | 0.0 | 0.00 | 0.00 | 0.00 | 94 | 1010.4 |
| 20260507044306 | 11 | 131 | 0.0 | 0.0 | 0.00 | 0.00 | 0.00 | 94 | 1010.7 |
| 20260507043802 | 11 | 131 | 0.0 | 0.0 | 0.00 | 0.00 | 0.00 | 93 | 1010.6 |
| 20260507043258 | 11 | 126 | 1.6 | 1.6 | 0.00 | 0.00 | 0.00 | 92 | 1010.9 |
| 20260507042754 | 11 | 129 | 1.6 | 1.6 | 0.00 | 0.00 | 0.00 | 94 | 1010.7 |
| 20260507042250 | 11 | 131 | 1.6 | 1.6 | 0.00 | 0.00 | 0.00 | 93 | 1010.6 |
| 20260507041747 | 11 | 128 | 0.0 | 0.0 | 0.00 | 0.00 | 0.00 | 93 | 1010.5 |
| 20260507041244 | 11 | 128 | 0.0 | 1.6 | 0.00 | 0.00 | 0.00 | 92 | 1010.4 |
| 20260507040741 | 11 | 128 | 0.0 | 1.6 | 0.00 | 0.00 | 0.00 | 91 | 1010.4 |
| 20260507040237 | 11 | 129 | 0.0 | 0.0 | 0.00 | 0.00 | 0.00 | 91 | 1010.3 |
| 20260507035733 | 11 | 128 | 0.0 | 0.0 | 0.00 | 1.27 | 1.27 | 90 | 1010.4 |
| 20260507035229 | 11 | 146 | 1.6 | 1.6 | 0.00 | 1.27 | 1.27 | 92 | 1010.1 |
| 20260507034726 | 11 | 128 | 0.0 | 0.0 | 0.00 | 1.27 | 1.27 | 93 | 1010.3 |
| 20260507034223 | 11 | 149 | 3.2 | 3.2 | 0.00 | 1.27 | 1.27 | 92 | 1009.9 |
| 20260507033722 | 11 | 129 | 0.0 | 0.0 | 0.00 | 1.27 | 1.27 | 94 | 1010.0 |
| 20260507033219 | 11 | 121 | 1.6 | 1.6 | 0.00 | 1.27 | 1.27 | 95 | 1009.9 |
| 20260507032716 | 11 | 128 | 0.0 | 0.0 | 0.00 | 1.27 | 1.27 | 96 | 1010.0 |
| 20260507032212 | 11 | 129 | 0.0 | 0.0 | 0.00 | 1.27 | 1.27 | 98 | 1009.8 |
| 20260507031709 | 12 | 128 | 0.0 | 0.0 | 0.00 | 1.27 | 1.27 | 99 | 1010.2 |
| 20260507031205 | 12 | 133 | 0.0 | 0.0 | 0.00 | 1.27 | 1.27 | 99 | 1010.0 |
| 20260507030702 | 12 | 131 | 0.0 | 0.0 | 0.00 | 1.27 | 1.27 | 99 | 1009.8 |
| 20260507030200 | 12 | 131 | 0.0 | 0.0 | 0.00 | 1.27 | 1.27 | 99 | 1009.9 |
| 20260507025657 | 12 | 131 | 0.0 | 0.0 | 0.00 | 1.27 | 1.27 | 98 | 1010.0 |
| 20260507025154 | 12 | 128 | 0.0 | 0.0 | 0.00 | 1.27 | 1.27 | 98 | 1010.1 |
| 20260507024652 | 12 | 135 | 0.0 | 0.0 | 0.00 | 1.27 | 1.27 | 98 | 1010.2 |
| 20260507024149 | 12 | 129 | 0.0 | 0.0 | 0.00 | 1.27 | 1.27 | 98 | 1010.1 |
| 20260507023644 | 12 | 130 | 0.0 | 0.0 | 0.00 | 1.27 | 1.27 | 98 | 1010.2 |
| 20260507023142 | 12 | 129 | 0.0 | 0.0 | 0.00 | 1.27 | 1.27 | 98 | 1010.2 |
| 20260507022639 | 12 | 121 | 0.0 | 0.0 | 0.00 | 1.27 | 1.27 | 98 | 1009.8 |
| 20260507022134 | 13 | 125 | 0.0 | 0.0 | 0.00 | 1.27 | 1.27 | 98 | 1010.1 |
| 20260507021631 | 13 | 111 | 0.0 | 0.0 | 0.00 | 1.27 | 1.27 | 98 | 1010.2 |
| 20260507021126 | 13 | 128 | 0.0 | 0.0 | 0.00 | 1.27 | 1.27 | 98 | 1010.2 |
| 20260507020625 | 13 | 128 | 1.6 | 1.6 | 0.00 | 1.27 | 1.27 | 98 | 1010.4 |
| 20260507020121 | 13 | 128 | 1.6 | 1.6 | 0.00 | 1.27 | 1.27 | 98 | 1010.3 |
| 20260507015619 | 13 | 124 | 3.2 | 3.2 | 0.00 | 1.27 | 1.27 | 98 | 1010.0 |
| 20260507015116 | 13 | 116 | 1.6 | 3.2 | 0.00 | 1.27 | 1.27 | 98 | 1010.3 |
| 20260507014613 | 13 | 141 | 1.6 | 1.6 | 0.00 | 1.27 | 1.27 | 98 | 1009.8 |
| 20260507014109 | 13 | 118 | 3.2 | 3.2 | 0.00 | 1.27 | 1.27 | 98 | 1009.1 |
| 20260507013606 | 13 | 124 | 0.0 | 0.0 | 0.00 | 1.27 | 1.27 | 98 | 1009.7 |
| 20260507013103 | 13 | 101 | 3.2 | 3.2 | 0.00 | 1.27 | 1.27 | 98 | 1009.3 |
| 20260507012600 | 13 | 128 | 0.0 | 0.0 | 0.00 | 1.27 | 1.27 | 98 | 1009.5 |
| 20260507012055 | 13 | 132 | 0.0 | 0.0 | 0.00 | 1.27 | 1.27 | 98 | 1009.2 |
| 20260507011554 | 13 | 125 | 1.6 | 1.6 | 0.00 | 1.27 | 1.27 | 98 | 1009.1 |
| 20260507011050 | 13 | 115 | 0.0 | 1.6 | 0.00 | 1.27 | 1.27 | 98 | 1008.6 |
| 20260507010544 | 13 | 103 | 3.2 | 3.2 | 0.00 | 1.27 | 1.27 | 98 | 1009.5 |
| 20260507010041 | 13 | 119 | 0.0 | 0.0 | 0.00 | 1.27 | 1.27 | 98 | 1009.2 |
| 20260507005538 | 13 | 129 | 0.0 | 0.0 | 0.00 | 1.27 | 1.27 | 98 | 1009.0 |
| 20260507005034 | 13 | 132 | 0.0 | 0.0 | 0.00 | 1.27 | 1.27 | 98 | 1008.9 |
| 20260507004531 | 13 | 131 | 0.0 | 0.0 | 0.00 | 1.27 | 1.27 | 98 | 1008.5 |
| 20260507004029 | 13 | 120 | 4.8 | 4.8 | 0.00 | 1.27 | 1.27 | 98 | 1008.1 |
| 20260507003524 | 13 | 128 | 0.0 | 0.0 | 0.00 | 1.27 | 1.27 | 98 | 1008.6 |
| 20260507003020 | 13 | 121 | 3.2 | 3.2 | 0.00 | 1.27 | 1.27 | 98 | 1008.6 |
| 20260507002517 | 13 | 121 | 1.6 | 3.2 | 0.00 | 1.27 | 1.27 | 97 | 1008.6 |
| 20260507002013 | 13 | 128 | 0.0 | 0.0 | 0.00 | 1.27 | 1.27 | 97 | 1008.8 |
| 20260507001509 | 13 | 130 | 1.6 | 1.6 | 0.00 | 1.27 | 1.27 | 97 | 1008.8 |
| 20260507001007 | 13 | 145 | 1.6 | 1.6 | 0.00 | 1.27 | 1.27 | 97 | 1008.5 |
| 20260507000503 | 13 | 108 | 3.2 | 3.2 | 0.00 | 1.27 | 1.27 | 98 | 1007.6 |
| 20260506235958 | 13 | 130 | 4.8 | 4.8 | 0.00 | 1.27 | 1.27 | 97 | 1008.0 |
| 20260506235456 | 13 | 136 | 1.6 | 3.2 | 0.00 | 1.27 | 1.27 | 97 | 1008.2 |
| 20260506234952 | 13 | 121 | 3.2 | 3.2 | 0.00 | 1.27 | 1.27 | 97 | 1008.2 |
| 20260506234449 | 13 | 102 | 4.8 | 4.8 | 0.00 | 1.27 | 1.27 | 97 | 1008.6 |
| 20260506233947 | 13 | 128 | 0.0 | 0.0 | 0.00 | 1.27 | 1.27 | 96 | 1008.8 |
| 20260506233443 | 13 | 131 | 1.6 | 1.6 | 0.00 | 1.27 | 1.27 | 96 | 1008.4 |
| 20260506232939 | 13 | 132 | 1.6 | 1.6 | 0.00 | 1.27 | 1.27 | 96 | 1008.4 |
| 20260506232436 | 13 | 120 | 1.6 | 1.6 | 0.00 | 1.27 | 1.27 | 96 | 1008.1 |
| 20260506231931 | 13 | 129 | 4.8 | 4.8 | 0.00 | 1.27 | 1.27 | 96 | 1008.0 |
| 20260506231429 | 14 | 126 | 1.6 | 3.2 | 0.00 | 1.27 | 1.27 | 95 | 1007.9 |
| 20260506230926 | 13 | 128 | 0.0 | 0.0 | 0.00 | 1.27 | 1.27 | 95 | 1008.0 |
| 20260506230422 | 13 | 128 | 0.0 | 1.6 | 0.00 | 1.27 | 1.27 | 95 | 1008.2 |
| 20260506225919 | 13 | 119 | 1.6 | 1.6 | 0.00 | 1.27 | 1.27 | 94 | 1008.0 |
| 20260506225416 | 13 | 121 | 0.0 | 0.0 | 0.00 | 1.27 | 1.27 | 94 | 1008.5 |
| 20260506224908 | 14 | 129 | 1.6 | 1.6 | 0.00 | 1.27 | 1.27 | 94 | 1008.8 |
| 20260506224405 | 14 | 125 | 1.6 | 3.2 | 0.00 | 1.27 | 1.27 | 94 | 1008.5 |
| 20260506223901 | 14 | 135 | 3.2 | 3.2 | 0.00 | 1.27 | 1.27 | 94 | 1008.6 |
| 20260506223356 | 14 | 125 | 0.0 | 0.0 | 0.00 | 1.27 | 1.27 | 94 | 1009.1 |
| 20260506222854 | 14 | 127 | 0.0 | 0.0 | 0.00 | 1.27 | 1.27 | 93 | 1008.8 |
| 20260506222350 | 15 | 131 | 0.0 | 0.0 | 0.00 | 1.27 | 1.27 | 93 | 1008.7 |
| 20260506221848 | 15 | 123 | 0.0 | 0.0 | 0.00 | 1.27 | 1.27 | 93 | 1008.6 |
| 20260506221345 | 15 | 123 | 0.0 | 0.0 | 0.00 | 1.27 | 1.27 | 93 | 1008.3 |
| 20260506220842 | 15 | 117 | 1.6 | 1.6 | 0.00 | 1.27 | 1.27 | 93 | 1008.2 |
| 20260506220338 | 15 | 119 | 0.0 | 1.6 | 0.00 | 1.27 | 1.27 | 93 | 1008.3 |
| 20260506215835 | 15 | 122 | 0.0 | 1.6 | 0.00 | 1.27 | 1.27 | 93 | 1008.3 |
| 20260506215330 | 15 | 133 | 0.0 | 0.0 | 0.00 | 1.27 | 1.27 | 93 | 1008.2 |
| 20260506214827 | 14 | 134 | 0.0 | 0.0 | 0.00 | 1.27 | 1.27 | 92 | 1007.9 |
| 20260506214323 | 14 | 131 | 0.0 | 0.0 | 0.00 | 1.27 | 1.27 | 91 | 1008.1 |
| 20260506213822 | 14 | 134 | 0.0 | 0.0 | 0.00 | 1.27 | 1.27 | 92 | 1008.0 |
| 20260506213319 | 14 | 122 | 1.6 | 1.6 | 0.00 | 1.27 | 1.27 | 91 | 1007.9 |
| 20260506212816 | 14 | 126 | 1.6 | 1.6 | 0.00 | 1.27 | 1.27 | 91 | 1008.1 |
| 20260506212312 | 15 | 124 | 0.0 | 1.6 | 0.00 | 1.27 | 1.27 | 91 | 1007.9 |
| 20260506211807 | 15 | 136 | 0.0 | 1.6 | 0.00 | 1.27 | 1.27 | 91 | 1007.9 |
| 20260506211303 | 15 | 136 | 3.2 | 3.2 | 0.00 | 1.27 | 1.27 | 91 | 1008.0 |
| 20260506210801 | 15 | 116 | 6.4 | 8.0 | 0.00 | 1.27 | 1.27 | 91 | 1008.0 |
| 20260506210257 | 15 | 122 | 1.6 | 1.6 | 0.00 | 1.27 | 1.27 | 90 | 1007.9 |
| 20260506205754 | 15 | 132 | 0.0 | 0.0 | 0.00 | 1.27 | 1.27 | 91 | 1007.9 |
| 20260506205250 | 15 | 129 | 0.0 | 0.0 | 0.00 | 1.27 | 1.27 | 91 | 1007.9 |
| 20260506204747 | 15 | 128 | 1.6 | 1.6 | 0.00 | 1.27 | 1.27 | 91 | 1008.0 |
| 20260506204245 | 15 | 135 | 0.0 | 0.0 | 0.00 | 1.27 | 1.27 | 91 | 1008.2 |
| 20260506203742 | 15 | 136 | 3.2 | 3.2 | 0.00 | 1.27 | 1.27 | 89 | 1007.8 |
| 20260506203239 | 15 | 121 | 4.8 | 4.8 | 0.00 | 1.27 | 1.27 | 90 | 1007.9 |
| 20260506202736 | 15 | 120 | 3.2 | 3.2 | 0.00 | 1.27 | 1.27 | 91 | 1007.9 |
| 20260506202233 | 14 | 126 | 3.2 | 3.2 | 0.00 | 1.27 | 1.27 | 90 | 1007.9 |
| 20260506201730 | 14 | 134 | 0.0 | 0.0 | 0.00 | 1.27 | 1.27 | 93 | 1008.0 |
| 20260506201226 | 14 | 144 | 3.2 | 4.8 | 0.00 | 1.27 | 1.27 | 93 | 1007.9 |
| 20260506200723 | 14 | 131 | 0.0 | 0.0 | 0.00 | 1.27 | 1.27 | 94 | 1007.9 |
| 20260506200220 | 13 | 120 | 0.0 | 0.0 | 0.00 | 1.27 | 1.27 | 94 | 1008.1 |